Flag for U.S.A. Weather past 2 weeks in Davenport, Iowa, U.S.A.

Now
67 °F

Sunny.


Feels Like: 67 °F
Forecast: 64 / 79 °F
Wind: 8 mph from East

Location: Davenport Municipal Airport

Current Time: Aug 27, 2014 at 8:45:18 AM

Latest Report: Aug 27, 2014 at 7:52 AM


Visibility: 10 mi

Pressure: 30.14 "Hg

Humidity: 85%

Dew point: 62 °F

Location of DavenportLocation

Historic Weather in Davenport — Graph

°F

Davenport temperature yesterday

Maximum temperature yesterday: 81 °F (at 3:52 PM)
Minimum temperature yesterday: 67 °F (at 9:52 PM)
Average temperature yesterday: 74 °F

Past Weeks' High & Low Weather Summary

 TemperatureHumidityPressure
High91 °F (Aug 24, 1:52 PM)97% (Aug 17, 4:52 AM)30.16 "Hg (Aug 17, 4:52 AM)
Low49 °F (Aug 13, 3:52 AM)43% (Aug 12, 4:52 PM)29.70 "Hg (Aug 19, 4:52 AM)
Average72 °F80%29.94 "Hg
* Reported Aug 12 6:52 AM — Aug 27 6:52 AM, Davenport, Weather by CustomWeather, © 2014

Note: Actual official high and low records may vary slightly from our data, if they occured in-between our weather recording intervals... More about our weather records

Advertising

Davenport weather history for previous 24 hours

 ConditionsComfort  
Time TempWeatherWind HumidityBarometerVisibility
6:52 AM
Aug 27
66 °FClear.9 mph87%30.13 "Hg10 mi
5:52 AM67 °FPassing clouds.8 mph87%30.12 "Hg10 mi
4:52 AM67 °FOvercast.8 mph90%30.12 "Hg10 mi
3:52 AM68 °FPassing clouds.6 mph87%30.11 "Hg10 mi
2:52 AM67 °FPassing clouds.5 mph90%30.12 "Hg10 mi
1:52 AM67 °FClear.3 mph90%30.13 "Hg10 mi
12:52 AM67 °FClear.3 mph90%30.12 "Hg10 mi
11:52 PM
Aug 26
68 °FClear.5 mph84%30.11 "Hg10 mi
10:52 PM67 °FClear.6 mph85%30.11 "Hg10 mi
9:52 PM67 °FClear.6 mph90%30.11 "Hg10 mi
8:52 PM69 °FClear.5 mph87%30.10 "Hg10 mi
7:52 PM72 °FSunny.6 mph81%30.08 "Hg10 mi
6:52 PM79 °FSunny.3 mph69%30.08 "Hg10 mi
5:52 PM79 °FSunny.3 mph62%30.08 "Hg10 mi
4:52 PM80 °FSunny.6 mph60%30.08 "Hg10 mi
3:52 PM81 °FSunny.3 mph60%30.09 "Hg10 mi
2:52 PM80 °FSunny.6 mph58%30.09 "Hg10 mi
1:52 PM79 °FSunny.9 mph62%30.12 "Hg10 mi
12:52 PM79 °FSunny.8 mph62%30.12 "Hg10 mi
11:52 AM76 °FSunny.12 mph67%30.09 "Hg10 mi
10:52 AM72 °FSunny.15 mph76%30.11 "Hg10 mi
9:52 AM69 °FSunny.12 mph84%30.10 "Hg10 mi
9:02 AM69 °FThunderstorms. Cloudy.6 mph81%30.16 "Hg10 mi
8:52 AM69 °FThundershowers. Mostly cloudy.16 mph81%30.11 "Hg10 mi
Weather by CustomWeather, © 2014

See weather overviewHow to use our weather pages